Regional Weather Roundup
Issued by NWS Little Rock, AR

Home | Current Version | Previous Version | Graphics & Text | Print | Product List | Glossary On
Versions: 1 2 3 4 5 6 7 8 9 10 11 12 13 14 15 16 17 18 19 20 21 22 23 24 25 26 27 28 29 30 31 32 33 34 35 36 37 38 39 40 41 42 43 44 45 46 47 48 49 50
000
ASUS44 KLZK 220405
RWRLZK

WEATHER ROUNDUP FOR ARKANSAS
NATIONAL WEATHER SERVICE LITTLE ROCK AR
1100 PM CDT MON JUL 21 2014

NOTE: "FAIR" INDICATES FEW OR NO CLOUDS BELOW 12,000 FEET WITH NO
SIGNIFICANT WEATHER AND/OR OBSTRUCTIONS TO VISIBILITY.

ARZ001-003-010-029-220500-
NORTHWEST ARKANSAS

CITY           SKY/WX    TMP DP  RH WIND       PRES   REMARKS
FAYETTEVILLE   CLEAR     72  69  90 CALM      30.08R
FORT SMITH     CLEAR     77  70  79 CALM      30.04R
HARRISON       CLEAR     73  68  84 SE7       30.09R
BENTONVILLE    CLEAR     75  68  78 S6        30.09R
ROGERS         CLEAR     77  69  76 S7        30.09R
SILOAM SPGS    CLEAR     75  64  69 S3        30.09R
HIGHFILL       CLEAR     74  70  87 S3        30.07R
$$

ARZ004-005-016-220500-
NORTH CENTRAL ARKANSAS

CITY           SKY/WX    TMP DP  RH WIND       PRES   REMARKS
BATESVILLE     CLEAR     73  66  78 SE3       30.06S
FLIPPIN        CLEAR     72  64  78 CALM      30.08R
MTN HOME       CLEAR     73  67  81 SE3       30.07R
$$

ARZ040-041-220500-
WEST CENTRAL ARKANSAS

CITY           SKY/WX    TMP DP  RH WIND       PRES   REMARKS
MENA           MOCLDY    75  72  88 CALM      30.09R
MOUNT IDA      CLEAR     70  68  93 CALM      30.06R
$$

ARZ009-017-025-026-028-220500-
NORTHEAST ARKANSAS

CITY           SKY/WX    TMP DP  RH WIND       PRES   REMARKS
CORNING        FAIR      73  72  94 CALM      30.06F
JONESBORO      CLEAR     69  65  86 CALM      30.05F
NEWPORT        CLEAR     74  69  84 CALM      30.07S
WALNUT RIDGE   CLEAR     73  64  73 SE5       30.06S
BLYTHEVILLE    CLEAR     72  69  90 CALM      30.06S
$$

ARZ022-023-033-042-044-220500-
CENTRAL ARKANSAS

CITY           SKY/WX    TMP DP  RH WIND       PRES   REMARKS
LITTLE ROCK    CLEAR     75  68  78 CALM      30.06R
N LITTLE ROCK  CLEAR     72  69  89 CALM      30.06R
JACKSONVILLE   CLEAR     70  68  92 CALM      30.06R
SEARCY         CLEAR     71  69  93 CALM      30.07R
HOT SPRINGS    PTCLDY    73  69  87 CALM      30.06R
RUSSELLVILLE   CLEAR     73  69  87 CALM      30.05R
CLINTON        FAIR      70  70 100 CALM      30.07S FOG
$$

ARZ036-220500-
EAST ARKANSAS

CITY           SKY/WX    TMP DP  RH WIND       PRES   REMARKS
WEST MEMPHIS   CLEAR     71  69  93 CALM      30.04S
$$

ARZ050-053-066-070-073-220500-
SOUTHWEST ARKANSAS

CITY           SKY/WX    TMP DP  RH WIND       PRES   REMARKS
ARKADELPHIA    FAIR      72  71  96 CALM      30.05R
CAMDEN         CLEAR     72  68  88 CALM      30.04R
TEXARKANA      CLEAR     73  70  90 CALM      30.05R
EL DORADO      CLEAR     71  70  96 CALM      30.04S
DE QUEEN       CLEAR     72  71  97 E3        30.03R FOG
$$

ARZ056-057-069-220500-
SOUTHEAST ARKANSAS

CITY           SKY/WX    TMP DP  RH WIND       PRES   REMARKS
PINE BLUFF     CLEAR     73  69  87 CALM      30.05R
STUTTGART      CLEAR     75  70  83 CALM      30.06R
MONTICELLO     CLEAR     73  69  87 CALM      30.04S

$$





USA.gov is the U.S. government's official web portal to all federal, state and local government web resources and services.